Vorticity
3 5 6 4 4 3 3 5 4 3 3 3 3 2 3 2 3 5 7 6 5 4 5 8 8 8 11 1 8 14 7 6 6 0 4 1 4 6 3 3 5 3 5
5 6 4 3 5 3 3 2 4 3 3 2 2 2 3 2 3 3 5 7 5 3 3 5 7 8 7 6 3 5 7 8 7 5 4 5 8 7 6 5 5 5 5
8 6 4 4 6 6 3 4 3 3 3 3 2 2 2 3 3 3 5 6 6 5 3 3 4 6 7 8 7 7 7 8 8 7 6 5 5 5 6 8 8 6 5
5 7 4 5 5 6 4 4 2 3 3 2 3 3 1 2 2 2 3 4 6 5 4 3 2 4 6 8 9 9 9 8 8 7 6 4 5 8 11 7 5 6 5
5 5 3 4 4 5 9 5 6 3 3 2 3 3 3 3 2 2 4 3 4 6 6 4 3 2 3 4 7 9 10 9 8 7 7 6 4 10 0 7 5 5 6
5 5 4 4 4 3 4 5 8 4 3 3 3 3 3 3 4 3 3 4 2 5 6 5 4 2 3 2 3 7 9 9 9 8 8 8 3 2 4 2 4 5 5
6 4 2 2 4 6 6 6 7 4 5 7 3 3 3 4 3 4 5 3 2 3 4 5 5 4 2 2 3 3 6 9 9 8 8 7 4 9 7 4 7 5 5
5 4 4 3 3 4 4 5 6 7 7 4 2 5 4 3 2 3 2 2 2 2 2 3 5 7 6 4 2 3 3 6 8 8 8 9 7 7 8 6 4 6 5
5 6 7 7 6 5 4 4 4 5 6 7 6 5 4 3 4 3 3 2 3 3 3 2 2 2 4 6 4 2 3 3 5 7 8 8 8 8 8 6 7 6 5
6 3 2 3 5 7 6 6 5 6 6 6 6 6 6 5 4 4 5 6 5 4 4 3 2 2 3 4 6 5 3 2 3 3 6 7 9 7 6 6 6 6 5
4 7 7 4 2 3 4 5 6 6 7 6 5 5 5 6 6 7 6 4 5 5 4 4 3 3 2 2 3 5 4 4 2 2 3 4 6 7 7 7 6 6 6
5 4 4 5 6 7 7 8 8 9 9 9 9 9 8 7 7 6 6 9 10 5 4 4 4 2 2 3 4 4 5 5 5 4 2 3 4 5 6 7 8 7 7
3 4 5 6 7 6 6 6 6 6 5 6 5 6 6 6 7 7 8 8 8 8 10 7 5 5 5 4 2 3 4 3 5 5 5 3 3 2 4 5 6 7 7
6 6 6 6 6 6 6 6 6 5 5 5 5 5 5 6 6 6 5 6 7 7 9 12 8 4 4 5 5 7 3 5 4 4 5 5 4 3 3 3 4 5 6
6 6 6 6 6 6 6 6 6 6 6 5 5 5 5 5 5 5 5 4 5 5 5 6 9 16 6 4 4 6 4 4 5 5 4 4 5 5 4 3 3 4 4
6 5 5 6 6 5 5 5 4 4 4 4 5 5 5 5 5 4 5 5 5 4 5 5 6 0 2 10 5 2 2 3 5 4 4 4 4 4 6 6 4 3 4
5 7 6 5 5 5 5 4 4 5 7 9 11 11 10 11 11 10 9 8 7 7 6 5 5 5 6 7 7 10 4 4 5 4 5 4 2 2 1 5 6 6 3
5 4 5 5 5 4 4 6 10 13 13 13 12 13 13 13 11 11 10 9 9 9 9 8 8 7 7 7 7 7 3 10 1 8 3 4 4 3 4 4 1 5 6
5 4 5 5 4 4 12 14 12 12 11 10 9 9 10 11 12 12 13 12 10 9 8 9 11 11 10 9 8 8 7 1 -0 13 13 5 5 5 5 5 6 2 3
4 5 5 3 3 13 11 10 8 7 8 9 10 11 12 12 12 12 13 17 18 15 13 11 9 9 10 10 10 10 10 11 12 10 -3 7 -4 17 6 7 6 7 7
5 5 3 3 15 10 9 7 7 9 9 9 9 9 10 11 13 14 15 17 16 16 15 14 13 11 11 11 10 10 11 11 12 12 13 12 12 12 -1 16 9 8 2
4 3 9 15 10 9 6 7 8 7 6 6 7 8 10 12 13 12 13 14 16 18 18 15 12 12 13 14 14 12 14 12 13 16 17 19 22 29 23 8 -3 7 -12
9 15 13 10 8 6 5 7 7 7 9 8 9 10 11 11 13 11 10 14 14 14 15 16 18 20 18 17 19 22 26 24 23 20 21 16 6 4 3 13 22 13 13
14 11 9 8 4 5 7 7 7 7 7 6 8 11 11 13 12 13 15 12 11 10 12 14 15 14 12 12 9 8 4 2 5 7 8 16 19 20 17 13 4 -4 21
10 10 6 4 5 6 6 7 8 9 9 10 10 13 16 13 12 10 7 6 5 6 8 9 9 9 10 11 13 10 5 7 7 6 5 11 15 12 16 13 19 21 15
9 5 4 5 4 6 7 8 9 10 11 10 11 13 12 16 16 12 11 12 13 12 12 10 8 9 10 8 8 9 11 13 14 9 7 3 7 10 11 8 12 17 15
Height
3169 3168 3168 3169 3169 3170 3171 3170 3171 3170 3170 3170 3170 3169 3169 3168 3168 3167 3166 3165 3164 3164 3163 3162 3161 3160 3160 3159 3159 3159 3159 3159 3160 3161 3161 3161 3162 3162 3162 3161 3161 3161 3161
3167 3167 3168 3169 3169 3170 3170 3171 3171 3171 3170 3170 3170 3170 3169 3169 3168 3168 3167 3166 3165 3165 3164 3163 3162 3161 3161 3160 3160 3159 3159 3159 3160 3160 3160 3160 3160 3161 3161 3161 3161 3161 3161
3167 3167 3167 3168 3169 3169 3170 3170 3170 3170 3171 3170 3170 3170 3170 3169 3168 3168 3167 3166 3165 3165 3164 3164 3163 3162 3161 3160 3160 3159 3159 3158 3159 3159 3159 3159 3160 3159 3159 3159 3160 3160 3160
3167 3167 3167 3167 3168 3168 3168 3169 3170 3169 3170 3170 3170 3170 3170 3170 3169 3168 3168 3167 3166 3165 3164 3164 3163 3162 3161 3160 3159 3159 3158 3158 3157 3158 3158 3157 3158 3158 3158 3158 3159 3159 3159
3166 3166 3167 3167 3167 3167 3168 3168 3168 3168 3169 3168 3169 3169 3168 3168 3168 3168 3167 3167 3166 3165 3164 3164 3163 3162 3161 3160 3159 3158 3158 3157 3157 3157 3157 3157 3156 3157 3157 3158 3158 3158 3158
3165 3166 3166 3166 3166 3167 3167 3167 3167 3167 3167 3167 3167 3167 3167 3167 3167 3166 3166 3165 3165 3164 3163 3163 3162 3161 3160 3160 3159 3158 3157 3156 3156 3156 3156 3155 3154 3155 3155 3156 3157 3157 3157
3164 3165 3165 3166 3166 3166 3165 3166 3165 3165 3165 3166 3166 3166 3165 3165 3165 3165 3164 3164 3163 3162 3162 3161 3160 3160 3159 3159 3158 3157 3156 3155 3155 3154 3154 3154 3153 3154 3154 3154 3154 3155 3155
3164 3164 3164 3164 3164 3164 3164 3164 3164 3164 3164 3164 3163 3163 3163 3163 3163 3163 3162 3162 3162 3161 3161 3160 3159 3158 3157 3157 3156 3156 3155 3154 3153 3153 3153 3153 3152 3152 3152 3153 3153 3153 3153
3163 3163 3163 3163 3163 3163 3162 3162 3162 3162 3161 3161 3161 3161 3161 3161 3160 3160 3160 3159 3159 3158 3158 3157 3157 3156 3155 3155 3154 3154 3153 3153 3152 3151 3151 3151 3151 3151 3151 3151 3151 3151 3151
3161 3161 3161 3161 3161 3160 3160 3160 3160 3160 3159 3158 3158 3157 3157 3157 3156 3156 3156 3155 3155 3155 3154 3154 3153 3153 3152 3152 3151 3151 3150 3150 3149 3149 3148 3148 3148 3148 3148 3148 3149 3149 3148
3158 3159 3159 3159 3159 3158 3158 3157 3157 3156 3156 3155 3155 3154 3153 3153 3152 3152 3151 3151 3151 3150 3150 3150 3150 3149 3149 3148 3148 3148 3147 3147 3146 3145 3145 3145 3145 3145 3145 3145 3146 3146 3146
3156 3156 3156 3156 3156 3155 3155 3154 3153 3152 3152 3151 3150 3150 3149 3148 3148 3147 3147 3147 3146 3146 3145 3145 3145 3144 3144 3144 3144 3143 3143 3143 3142 3142 3142 3142 3143 3142 3142 3142 3142 3142 3142
3154 3154 3153 3153 3153 3152 3151 3150 3149 3149 3148 3147 3146 3145 3144 3143 3142 3142 3141 3141 3141 3140 3139 3139 3140 3139 3139 3138 3139 3138 3139 3138 3138 3137 3138 3137 3138 3138 3138 3138 3138 3138 3138
3151 3151 3150 3149 3149 3148 3148 3147 3146 3145 3143 3142 3141 3140 3139 3138 3137 3136 3135 3135 3134 3134 3134 3133 3134 3133 3133 3133 3133 3133 3132 3132 3132 3132 3132 3133 3133 3133 3133 3133 3134 3134 3134
3148 3148 3147 3146 3145 3144 3143 3142 3141 3140 3139 3137 3136 3134 3132 3131 3130 3129 3128 3127 3126 3126 3126 3126 3126 3126 3127 3127 3126 3126 3126 3127 3127 3127 3127 3127 3128 3129 3128 3128 3128 3128 3129
3145 3144 3143 3142 3141 3140 3139 3137 3136 3134 3133 3131 3129 3127 3126 3124 3123 3121 3120 3119 3119 3118 3117 3117 3118 3118 3118 3119 3119 3120 3120 3119 3120 3120 3120 3121 3122 3122 3123 3123 3123 3123 3123
3140 3140 3139 3139 3138 3136 3135 3133 3131 3129 3126 3124 3121 3119 3117 3115 3113 3112 3111 3110 3110 3109 3108 3107 3107 3109 3109 3110 3110 3111 3112 3113 3112 3112 3112 3112 3113 3114 3116 3116 3116 3117 3117
3136 3136 3136 3134 3133 3131 3130 3128 3125 3122 3120 3117 3114 3111 3109 3106 3104 3102 3101 3100 3100 3098 3098 3098 3098 3097 3098 3099 3099 3100 3101 3102 3103 3103 3104 3104 3104 3104 3105 3107 3109 3109 3110
3132 3131 3130 3129 3127 3126 3124 3121 3119 3116 3113 3111 3108 3104 3101 3098 3096 3093 3092 3090 3089 3088 3087 3087 3087 3088 3087 3088 3089 3090 3091 3092 3092 3094 3094 3095 3096 3096 3097 3097 3099 3101 3101
3128 3126 3125 3124 3122 3120 3119 3116 3113 3110 3107 3104 3100 3097 3094 3091 3088 3085 3083 3081 3079 3079 3078 3078 3077 3077 3077 3077 3077 3078 3079 3081 3083 3083 3084 3085 3086 3087 3088 3088 3088 3089 3091
3122 3121 3120 3119 3117 3115 3113 3111 3109 3105 3102 3099 3095 3091 3087 3084 3080 3077 3075 3072 3070 3069 3069 3069 3069 3068 3068 3068 3067 3067 3067 3068 3070 3071 3073 3074 3075 3075 3077 3077 3077 3078 3079
3118 3117 3116 3114 3112 3110 3108 3106 3104 3101 3097 3094 3090 3085 3082 3078 3076 3072 3069 3066 3063 3062 3062 3060 3059 3059 3059 3059 3058 3057 3056 3058 3059 3060 3060 3059 3062 3063 3064 3066 3066 3067 3067
3113 3113 3112 3110 3108 3106 3104 3102 3099 3096 3092 3089 3084 3080 3076 3072 3070 3067 3064 3062 3060 3057 3056 3055 3054 3053 3051 3050 3050 3050 3048 3047 3047 3049 3051 3051 3052 3053 3053 3054 3054 3055 3056
3109 3108 3107 3106 3104 3102 3100 3097 3094 3091 3088 3084 3080 3076 3072 3069 3066 3062 3059 3057 3055 3053 3052 3051 3050 3048 3045 3045 3045 3045 3043 3042 3040 3036 3040 3041 3041 3041 3042 3042 3042 3043 3044
3105 3104 3103 3102 3100 3098 3095 3092 3089 3085 3082 3079 3075 3071 3067 3064 3061 3059 3056 3053 3051 3049 3047 3045 3045 3044 3041 3039 3039 3039 3038 3037 3036 3032 3026 3030 3031 3031 3032 3031 3030 3031 3033
3101 3101 3099 3097 3095 3093 3090 3086 3083 3080 3077 3074 3070 3067 3063 3060 3058 3055 3053 3050 3047 3045 3042 3041 3039 3037 3036 3034 3034 3033 3032 3030 3028 3026 3022 3022 3021 3022 3022 3022 3021 3020 3020